Content
SEND FEEDBACK

Daily
Averages
Monthly
Summary
United States of America

SINCLAIR, WYOMING


Home > North America > United States > Wyoming
Elevation: 6757 feet     Latitude: 41 48N     Longitude: 107 12W

WEATHER
 
SELECT A DAY
Number of Records: 174,705;   Date Range: 1/1/95 - 8/28/14
 
SHARE

PRINT THIS DATA

[ ← Previous Day ]
WEATHER ALMANAC - JANUARY 31, 2013
[ Next Day → ]
[ °C ]   °F
Weather ElementAverageHighLow
Temperature27.4 °F32 °F (12:53 pm)23 °F (6:53 am)
Dewpoint19.9 °F21.9 °F (1:53 pm)17.1 °F (5:53 am)
Humidity73.7 %80 % (3:23 am)61 % (11:53 am)
Barometer30.12 in30.23 in (7:53 pm)29.94 in (3:32 am)
Wind Speed19.8 mph29.9 mph (4:53 am)
Wind Gust43.7 mph (5:53 am)
Weather ElementAverage
Visibility10 mi
Wind DirectionWSW (253.9 °)

Weather ElementTotal
Precipitation---
Heating Degree Days37.5 (Base 65)
Averaged from 28 records on January 31, 2013
WEATHER CONDITIONS BREAKOUT
WIND DIRECTION BREAKOUT
WEATHER BY HOUR - JANUARY 31, 2013
[ °C ]   °F
Local TimeTemperatureDewpointHumidityBarometerVisibilityWind DirectionWind SpeedGust SpeedPrecipitationEventsConditions
1:53 AM26.1 °F19.9 °F78 %29.99 in10.0 miWest (260°)23.0 mph33.4 mphMostly Cloudy
2:53 AM25.0 °F19.0 °F78 %30.00 in10.0 miWest (260°)20.7 mph29.9 mphScattered Clouds
3:23 AM24.8 °F19.4 °F80 %29.95 in10.0 miWest (260°)15.0 mph24.2 mphMostly Cloudy
3:32 AM24.8 °F17.6 °F74 %29.94 in10.0 miWSW (250°)18.4 mph26.5 mphScattered Clouds
3:53 AM25.0 °F18.0 °F75 %30.01 in10.0 miWest (270°)25.3 mph36.8 mphPartly Cloudy
4:53 AM25.0 °F18.0 °F75 %30.02 in10.0 miWest (270°)29.9 mph39.1 mphClear
5:53 AM24.1 °F17.1 °F75 %30.06 in10.0 miWest (270°)26.5 mph43.7 mphClear
6:53 AM23.0 °F17.1 °F78 %30.13 in10.0 miWest (260°)20.7 mph32.2 mphClear
7:53 AM24.1 °F17.1 °F75 %30.16 in10.0 miWest (260°)20.7 mph28.8 mphPartly Cloudy
8:53 AM26.1 °F18.0 °F71 %30.18 in10.0 miWest (260°)24.2 mph33.4 mphScattered Clouds
9:53 AM27.0 °F19.9 °F75 %30.19 in10.0 miWest (260°)24.2 mph33.4 mphClear
10:53 AM28.9 °F21.0 °F72 %30.19 in10.0 miWSW (250°)18.4 mphMostly Cloudy
11:03 AM28.4 °F21.2 °F74 %30.12 in10.0 miWSW (250°)19.6 mph29.9 mphMostly Cloudy
11:35 AM30.2 °F19.4 °F64 %30.12 in10.0 miWSW (250°)18.4 mph33.4 mphOvercast
11:53 AM30.9 °F19.0 °F61 %30.18 in10.0 miWest (260°)18.4 mph33.4 mphOvercast
12:53 PM32.0 °F21.0 °F64 %30.17 in10.0 miWSW (250°)15.0 mph27.6 mphMostly Cloudy
1:53 PM32.0 °F21.9 °F66 %30.17 in10.0 miWSW (250°)16.1 mph28.8 mphOvercast
2:53 PM30.9 °F21.0 °F67 %30.18 in10.0 miWSW (250°)17.3 mph27.6 mphScattered Clouds
3:53 PM30.0 °F21.9 °F72 %30.18 in10.0 miWSW (240°)11.5 mph19.6 mphPartly Cloudy
5:53 PM28.0 °F21.0 °F75 %30.20 in10.0 miWSW (250°)20.7 mph26.5 mphScattered Clouds
6:34 PM28.4 °F21.2 °F74 %30.13 in10.0 miWSW (250°)15.0 mph23.0 mphOvercast
6:53 PM28.9 °F21.9 °F75 %30.22 in10.0 miWSW (250°)15.0 mph23.0 mphOvercast
7:22 PM28.4 °F21.2 °F74 %30.14 in10.0 miWSW (250°)16.1 mph21.9 mphOvercast
7:53 PM28.0 °F21.0 °F75 %30.23 in10.0 miWSW (250°)19.6 mph27.6 mphMostly Cloudy
8:53 PM27.0 °F21.0 °F78 %30.20 in10.0 miWSW (250°)19.6 mph25.3 mphClear
9:24 PM26.6 °F21.2 °F80 %30.12 in10.0 miWSW (240°)23.0 mph33.4 mphMostly Cloudy
9:34 PM26.6 °F21.2 °F80 %30.12 in10.0 miWSW (240°)23.0 mph35.7 mphMostly Cloudy
11:53 PM27.0 °F21.0 °F78 %30.19 in10.0 miWSW (250°)18.4 mph28.8 mphMostly Cloudy
Hourly data recorded from KRWL, located miles away from Sinclair, Wyoming







STORIES FROM OUR PARTNERS